"Pseudo-MPEC" for P10Hqf1

Created 2018 Apr 23 3:18:06 UT using Find_Orb

Click here for an explanation of pseudo-MPECs

 
 Astrometry: 
     P10Hqf1  C2018 04 13!yAstrometrydo4ZMfu42v^MR=6q;(NeuO,!7Yl!wa5Wacx]wd35F51
     P10Hqf1  C2018 04 137e,(6H0kvPf%6g8.:redacted;wJOT1lsee,HCp52bU?jkgT\c^BF51
     P10Hqf1  C2018 04 13tC_3CG'@qVO]#5_F,uYHPx8u?F2\+4$YX=lUeMP6*%Ma:3-NEOCPF51

Station data:
(F51) Pan-STARRS 1, Haleakala  (N20.707235 W156.255910)  US/Hawaii.
   Observers N. Primak, A. Schultz, S. Watters, J. Thiel, T. Goggia. Measurer
   PS1 Science Consortium. 1.8-m Ritchey-Chrétien + CCD.

Orbital elements:  P10Hqf1
   Perihelion 2018 Mar 3.433594 +/- 37.3 TT = 10:24:22 (JD 2458180.933594)
Epoch 2018 Apr 13.0 TT = JDT 2458221.5   Earth MOID: 0.0150   AutoNEOCP
M  34.10790 +/- 19                  (J2000 ecliptic)
n   0.84079182 +/- 0.387            Peri.  112.09530 +/- 80
a   1.11175834 +/- 0.341            Node    49.46980 +/- 60
e   0.0951329 +/- 0.243             Incl.    0.41408 +/- 2.3
P   1.17/428.16d           H 28.9   G  0.15   U 12.1  SR
q 1.00599352 +/- 0.242    Q 1.21752315 +/- 45
From 3 observations 2018 Apr. 13 (54.3 min); mean residual 0".12
Residuals in arcseconds: 
180413 F51  .13+  .08+    180413 F51  .20-  .11-    180413 F51  .07+  .04+    

Ephemerides (geocentric):
Date (UTC) HH   RA              Dec         delta   r     elong  mag " sig PA
---- -- -- --  ------------   ------------  ------ ------ -----  --- ---- ---
2018 04 23 03  13 18 25.524   -04 21 18.68  .03454 1.0390 166.6 22.4  53d   4
2018 04 23 04  13 18 32.005   -04 22 46.22  .03458 1.0391 166.6 22.4  53d   4
2018 04 23 05  13 18 38.475   -04 24 13.60  .03462 1.0391 166.6 22.4  53d   4
2018 04 23 06  13 18 44.935   -04 25 40.81  .03466 1.0392 166.6 22.4  53d   4
2018 04 23 07  13 18 51.385   -04 27 07.86  .03471 1.0392 166.6 22.4  53d   4
2018 04 23 08  13 18 57.825   -04 28 34.76  .03475 1.0393 166.6 22.4  53d   4
2018 04 23 09  13 19 04.255   -04 30 01.49  .03479 1.0393 166.6 22.4  53d   4
2018 04 23 10  13 19 10.675   -04 31 28.07  .03483 1.0394 166.6 22.4  53d   4
2018 04 23 11  13 19 17.086   -04 32 54.48  .03487 1.0394 166.6 22.4  53d   4
2018 04 23 12  13 19 23.486   -04 34 20.74  .03491 1.0395 166.6 22.4  54d   4
2018 04 23 13  13 19 29.877   -04 35 46.84  .03495 1.0395 166.5 22.4  54d   4
2018 04 23 14  13 19 36.257   -04 37 12.78  .03499 1.0396 166.5 22.4  54d   4
2018 04 23 15  13 19 42.628   -04 38 38.56  .03503 1.0396 166.5 22.4  54d   4
2018 04 23 16  13 19 48.989   -04 40 04.18  .03507 1.0397 166.5 22.4  54d   4
2018 04 23 17  13 19 55.340   -04 41 29.65  .03511 1.0397 166.5 22.4  54d   4
2018 04 23 18  13 20 01.682   -04 42 54.96  .03515 1.0398 166.5 22.4  54d   4
2018 04 23 19  13 20 08.013   -04 44 20.11  .03519 1.0398 166.5 22.4  54d   4
2018 04 23 20  13 20 14.335   -04 45 45.10  .03523 1.0399 166.5 22.4  54d   4
2018 04 23 21  13 20 20.648   -04 47 09.94  .03528 1.0399 166.5 22.4  54d   4
2018 04 23 22  13 20 26.950   -04 48 34.63  .03532 1.0400 166.5 22.4  54d   4
2018 04 23 23  13 20 33.243   -04 49 59.16  .03536 1.0400 166.5 22.5  54d   4
2018 04 24 00  13 20 39.527   -04 51 23.53  .03540 1.0401 166.5 22.5  54d   4
2018 04 24 01  13 20 45.800   -04 52 47.75  .03544 1.0401 166.5 22.5  54d   3
2018 04 24 02  13 20 52.064   -04 54 11.81  .03548 1.0402 166.5 22.5  54d   3
2018 04 24 03  13 20 58.319   -04 55 35.72  .03552 1.0402 166.5 22.5  54d   3
2018 04 24 04  13 21 04.564   -04 56 59.47  .03556 1.0403 166.5 22.5  54d   3
2018 04 24 05  13 21 10.800   -04 58 23.07  .03561 1.0403 166.5 22.5  54d   3
2018 04 24 06  13 21 17.026   -04 59 46.52  .03565 1.0404 166.5 22.5  54d   3
2018 04 24 07  13 21 23.242   -05 01 09.82  .03569 1.0404 166.5 22.5  54d   3
2018 04 24 08  13 21 29.449   -05 02 32.96  .03573 1.0405 166.5 22.5  54d   3
2018 04 24 09  13 21 35.647   -05 03 55.95  .03577 1.0405 166.5 22.5  54d   3
2018 04 24 10  13 21 41.835   -05 05 18.78  .03581 1.0406 166.5 22.5  55d   3
2018 04 24 11  13 21 48.014   -05 06 41.47  .03586 1.0406 166.5 22.5  55d   3
2018 04 24 12  13 21 54.184   -05 08 04.00  .03590 1.0407 166.4 22.5  55d   3
2018 04 24 13  13 22 00.344   -05 09 26.38  .03594 1.0407 166.4 22.5  55d   3
2018 04 24 14  13 22 06.495   -05 10 48.61  .03598 1.0408 166.4 22.5  55d   3
2018 04 24 15  13 22 12.637   -05 12 10.69  .03602 1.0408 166.4 22.5  55d   3
2018 04 24 16  13 22 18.769   -05 13 32.62  .03606 1.0409 166.4 22.5  55d   3
2018 04 24 17  13 22 24.892   -05 14 54.40  .03611 1.0409 166.4 22.5  55d   3
2018 04 24 18  13 22 31.006   -05 16 16.03  .03615 1.0410 166.4 22.5  55d   3
2018 04 24 19  13 22 37.110   -05 17 37.51  .03619 1.0410 166.4 22.5  55d   3
2018 04 24 20  13 22 43.206   -05 18 58.84  .03623 1.0411 166.4 22.5  55d   3
2018 04 24 21  13 22 49.292   -05 20 20.02  .03627 1.0411 166.4 22.5  55d   3
2018 04 24 22  13 22 55.369   -05 21 41.06  .03632 1.0412 166.4 22.5  55d   3
2018 04 24 23  13 23 01.437   -05 23 01.94  .03636 1.0412 166.4 22.5  55d   3
2018 04 25 00  13 23 07.495   -05 24 22.68  .03640 1.0413 166.4 22.5  55d   3
2018 04 25 01  13 23 13.545   -05 25 43.27  .03644 1.0413 166.4 22.5  55d   3
2018 04 25 02  13 23 19.586   -05 27 03.71  .03648 1.0414 166.4 22.5  55d   3